Location: Unspecified
(0.0000°N, 0.0000°E)
Time: 22:19:29
(UTC+01:00)

ARIANE DEB (SPELDA) - Visible Passes

Search period start: 17 January 2017 00:00
Search period end: 27 January 2017 00:00
Orbit: 353 x 32940 km, 3.3° (Epoch: 16 January)

Date Brightness Start Highest point End Pass type
(mag) Time Alt. Az. Time Alt. Az. Time Alt. Az.
17 Jan 11.0 02:18:53 10° E 03:35:36 14° E 04:27:54 10° E visible
18 Jan 7.9 02:07:46 78° WSW 02:18:08 86° S 10:46:49 10° E visible
18 Jan 3.7 20:49:30 10° W 20:53:02 71° S 20:58:15 30° E visible
19 Jan 10.9 01:36:54 10° E 03:53:35 20° E 05:07:31 10° E visible
20 Jan 8.0 02:26:29 72° WSW 02:49:26 87° S 11:05:46 10° E visible
20 Jan 4.0 21:07:48 10° W 21:11:54 73° S 21:16:31 38° ESE visible
22 Jan 7.8 02:45:15 65° W 03:35:43 88° SSE 11:24:34 10° E visible
22 Jan 4.4 21:26:06 10° W 21:30:50 74° S 06:04:23 10° E visible
24 Jan 7.5 03:04:07 58° W 04:31:42 85° W 11:43:14 10° E visible
24 Jan 4.8 21:44:22 10° W 21:49:51 76° S 06:28:39 10° E visible
26 Jan 7.3 03:23:03 52° W 04:50:59 79° W 12:01:48 10° E visible
